#timestamp,LO_Frequency,Hit,StdDev 
1710594045.6,286046997.2,E
1710594055.5,286046998.8,N
1710594075.4,286047000.1,P
1710594095.2,286047002.8,P
1710594115.0,286047000.4,N
1710594115.9,286047000.4,N
1710594135.8,286047001.0,N
1710594155.6,286047000.5,N
1710594175.5,286047000.4,N
1710594195.3,286047000.5,N
1710594245.2,286047000.4,E
1710594255.1,286047000.7,N
1710594256.0,286047000.7,P
1710594275.8,286047000.8,P
1710594295.7,286047001.2,Y
1710594315.5,286046998.3,P
1710594335.3,286047000.9,N
1710594355.2,286047000.7,N
1710594375.0,286047000.6,N
1710594375.9,286047000.6,N
1710594395.7,286047002.6,N
1710594415.6,286047000.2,N
1710594435.4,286046998.5,N
1710594455.3,286047000.6,N
1710594475.1,286047001.1,N
1710594495.8,286046998.2,N
1710594515.7,286047001.1,N
1710594535.5,286047000.0,N
1710594555.4,286047002.7,N
1710594575.2,286046999.9,N
1710594595.0,286047002.8,N
1710594595.9,286047002.8,N
1710594615.8,286047001.9,N
1710594635.6,286047002.1,N
1710594655.5,286047002.0,N
1710594675.3,286047001.7,N
1710594695.1,286047001.5,N
1710594715.9,286047002.0,N
1710594735.7,286047002.1,N
1710594755.5,286047002.1,N
1710594775.4,286046999.9,N
1710594795.2,286047000.1,N
1710594815.1,286047000.3,N
1710594816.0,286047000.3,N
1710594835.8,286046999.7,N
1710594855.6,286046999.7,N
1710594875.5,286047002.7,N
1710594895.3,286047002.8,N
1710594915.2,286047002.3,N
1710594935.9,286047001.9,N
1710594955.7,286047002.0,N
1710594975.6,286047000.2,N
1710594995.4,286047002.6,N
1710595015.2,286047002.2,N
1710595035.1,286047000.7,N
1710595036.0,286047000.7,N
1710595055.8,286047000.6,N
1710595075.7,286047002.3,N
1710595095.5,286047002.2,N
1710595115.3,286047001.7,N
1710595135.2,286047002.6,N
1710595155.0,286047000.6,N
1710595155.9,286047000.6,N
1710595175.8,286047000.5,N
1710595195.6,286047002.5,N
1710595215.4,286047001.6,N
1710595235.3,286047004.3,Y
1710595255.1,286047002.8,P
1710595275.9,286047000.4,N
1710595295.7,286047000.9,N
1710595315.5,286047001.1,N
1710595335.4,286047000.6,N
1710595355.2,286047000.6,N
1710595375.0,286047001.1,N
1710595375.9,286047001.1,N
1710595395.8,286047001.0,N
1710595415.6,286047000.9,N
1710595435.5,286047000.8,N
1710595455.3,286046999.6,N
1710595475.1,286046998.9,N
1710595495.9,286046998.4,N
1710595515.7,286046999.3,N
1710595535.5,286046998.3,N
1710595555.4,286047001.1,N
1710595575.2,286046998.2,N
1710595595.1,286046998.5,N
1710595596.0,286046998.5,N
1710595615.8,286047001.2,N
1710595635.6,286047000.4,N
1710595655.5,286046999.8,N
1710595675.3,286047000.6,N
1710595695.1,286046998.2,N
1710595715.9,286046998.5,N
1710595735.7,286046998.4,N
1710595755.6,286046999.6,N
1710595775.4,286046996.8,N
1710595795.2,286046997.5,N
1710595815.1,286046994.9,Y
1710595816.0,286046994.9,P
1710595835.8,286046998.2,N
1710595855.7,286047001.1,N
1710595875.5,286046998.6,N
1710595895.3,286046998.5,N
1710595915.2,286046997.8,N
1710595935.9,286046995.0,N
1710595955.7,286046997.5,N
1710595975.1,286046997.0,N
1710595976.0,286046997.0,N
1710595995.8,286046997.1,N
1710596015.7,286046997.0,N
1710596035.5,286046997.4,N
1710596055.3,286046999.1,N
1710596075.2,286046996.5,N
1710596095.0,286046999.1,N
1710596095.9,286046999.1,N
1710596115.8,286046998.7,N
1710596135.6,286046996.5,N
1710596155.4,286046998.7,N
1710596175.3,286047001.2,N
1710596195.1,286046998.9,N
1710596215.8,286046998.8,N
1710596235.7,286046998.7,N
1710596255.5,286046999.4,N
1710596275.4,286046998.8,N
1710596295.2,286046998.6,N
1710596315.0,286046998.7,N
1710596315.9,286046998.7,N
1710596335.8,286046998.8,N
1710596355.6,286046998.9,N
1710596375.4,286046998.3,N
1710596395.3,286047001.0,N
1710596415.1,286046998.2,N
1710596435.9,286046999.0,N
1710596455.7,286046999.6,N
1710596475.6,286046996.6,N
1710596495.4,286046996.8,N
1710596515.2,286046996.7,N
1710596535.1,286046997.2,N
1710596536.0,286046997.2,N
1710596555.8,286046996.9,N
1710596575.6,286046997.7,N
1710596595.5,286046996.5,N
1710596615.3,286046999.3,N
1710596635.2,286046998.1,N
1710596655.9,286046998.7,N
1710596675.7,286046999.5,N
1710596695.6,286046998.4,N
1710596715.4,286046998.7,N
1710596735.2,286046999.5,N
1710596755.1,286046997.9,N
1710596756.0,286046997.9,N
1710596775.8,286046996.8,Y
1710596795.7,286046998.6,P
1710596815.5,286047000.9,P
1710596835.3,286047002.2,N
1710596855.2,286047002.8,N
1710596875.0,286047000.4,N
1710596875.9,286047000.4,N
1710596895.8,286047001.1,N
1710596915.6,286047000.6,N
1710596935.4,286047000.9,N
1710596955.3,286047001.2,N
1710596975.1,286047000.3,N
1710596995.8,286047000.2,N
1710597015.7,286047000.2,N
1710597035.5,286047000.8,N
1710597055.4,286046999.2,N
1710597075.2,286046999.2,N
1710597095.0,286046997.3,N
1710597095.9,286046997.3,N
1710597115.8,286046999.1,N
1710597135.6,286046999.0,N
1710597155.5,286046999.5,N
1710597175.3,286046998.9,N
1710597195.1,286046998.5,N
1710597215.9,286046999.6,N
1710597235.7,286046998.2,N
1710597255.5,286047001.2,N
1710597275.4,286046996.9,N
1710597295.2,286046998.4,N
1710597315.1,286047001.0,N
1710597316.0,286047001.0,N
1710597335.8,286046997.2,N
1710597355.6,286046999.6,N
1710597375.5,286046996.9,N
1710597395.3,286046997.8,N
1710597415.1,286046997.1,N
1710597435.9,286046998.8,N
1710597455.7,286046998.2,N
1710597475.6,286046998.7,N
1710597495.4,286046998.5,N
1710597515.2,286046998.9,N
1710597535.1,286046996.7,N
1710597536.0,286046996.7,N
1710597555.8,286046997.2,N
1710597575.6,286046996.8,N
1710597595.5,286046997.7,N
